TimeEDT,TemperatureF,Dew PointF,Humidity,Sea Level PressureIn,VisibilityMPH,Wind Direction,Wind SpeedMPH,Gust SpeedMPH,PrecipitationIn,Events,Conditions,WindDirDegrees,DateUTC
12:53 AM,45.0,30.0,56,29.70,10.0,WSW,9.2,-,N/A,,Clear,250,2012-10-31 04:53:00
1:53 AM,44.1,28.9,55,29.70,10.0,WSW,6.9,-,N/A,,Clear,250,2012-10-31 05:53:00
2:53 AM,45.0,30.0,56,29.70,10.0,West,6.9,-,N/A,,Overcast,260,2012-10-31 06:53:00
3:53 AM,45.0,30.0,56,29.70,10.0,West,8.1,-,N/A,,Overcast,260,2012-10-31 07:53:00
4:53 AM,46.0,28.9,51,29.70,10.0,West,11.5,-,N/A,,Overcast,260,2012-10-31 08:53:00
5:53 AM,46.0,30.0,54,29.71,10.0,West,8.1,-,N/A,,Mostly Cloudy,260,2012-10-31 09:53:00
6:53 AM,46.0,30.0,54,29.72,10.0,West,10.4,-,N/A,,Scattered Clouds,270,2012-10-31 10:53:00
7:53 AM,46.0,30.9,56,29.74,10.0,West,8.1,-,N/A,,Mostly Cloudy,260,2012-10-31 11:53:00
8:53 AM,46.0,30.0,54,29.76,10.0,West,9.2,-,N/A,,Clear,260,2012-10-31 12:53:00
9:53 AM,48.9,30.0,48,29.76,10.0,WSW,16.1,-,N/A,,Clear,250,2012-10-31 13:53:00
10:53 AM,53.1,30.0,41,29.75,10.0,West,15.0,21.9,N/A,,Clear,270,2012-10-31 14:53:00
11:53 AM,55.9,30.0,37,29.77,10.0,WSW,17.3,25.3,N/A,,Clear,250,2012-10-31 15:53:00
12:53 PM,57.9,30.0,35,29.76,10.0,SW,13.8,23.0,N/A,,Clear,220,2012-10-31 16:53:00
1:53 PM,59.0,28.9,32,29.74,10.0,WSW,9.2,18.4,N/A,,Clear,240,2012-10-31 17:53:00
2:53 PM,62.1,23.0,22,29.72,10.0,WSW,15.0,24.2,N/A,,Clear,250,2012-10-31 18:53:00
3:53 PM,62.1,26.1,25,29.71,10.0,SW,18.4,24.2,N/A,,Clear,230,2012-10-31 19:53:00
4:53 PM,62.1,21.9,21,29.72,10.0,West,13.8,26.5,N/A,,Clear,260,2012-10-31 20:53:00
5:53 PM,61.0,19.0,20,29.73,10.0,WSW,12.7,-,N/A,,Clear,240,2012-10-31 21:53:00
6:53 PM,55.9,19.0,24,29.76,10.0,West,9.2,-,N/A,,Clear,260,2012-10-31 22:53:00
8:53 PM,52.0,18.0,26,29.80,10.0,WNW,5.8,-,N/A,,Clear,290,2012-11-01 00:53:00
10:53 PM,46.9,21.0,36,29.82,10.0,West,5.8,-,N/A,,Clear,280,2012-11-01 02:53:00
11:53 PM,48.0,21.9,36,29.83,10.0,WNW,6.9,-,N/A,,Clear,290,2012-11-01 03:53:00